Location: Bettgenhausen
(50.6463°N, 7.5681°E)
Time: 11:53:58
(UTC+00:00)

STARLINK-32 - Pass Details

Date: 27 February 2020
Orbit: 529 x 530 km, 53.0° (Epoch: 09 April)

Event Time Altitude Azimuth Distance (km) Brightness Sun altitude
Rises 19:17:58 0° 284° (WNW) 2,671 8.7 -21.5°
Reaches altitude 10° 19:20:12 10° 287° (WNW) 1,781 7.4 -21.8°
Maximum altitude 19:24:13 69° 11° (N) 572 3.6 -22.4°
Enters shadow 19:24:15 69° 15° (NNE) 572 3.6 -22.4°
